Time,TemperatureF,DewpointF,PressureIn,WindDirection,WindDirectionDegrees,WindSpeedMPH,WindSpeedGustMPH,Humidity,HourlyPrecipIn,Conditions,Clouds,dailyrainin,SoftwareType,DateUTC
2013-08-10 00:00:00,72.8,71.6,29.76,West,261,0.0,2.0,96,0.00,,SCT220,0.00,VWS V14.01,2013-08-10 04:00:00,
2013-08-10 00:01:00,72.8,71.6,29.76,West,261,0.0,2.0,96,0.00,,SCT220,0.00,VWS V14.01,2013-08-10 04:01:00,
2013-08-10 00:06:00,72.7,71.5,29.76,West,261,0.0,2.0,96,0.00,,SCT220,0.00,VWS V14.01,2013-08-10 04:06:00,
2013-08-10 00:11:00,72.6,71.4,29.76,West,261,1.0,2.0,96,0.00,,SCT220,0.00,VWS V14.01,2013-08-10 04:11:00,
2013-08-10 00:16:00,72.6,71.4,29.76,West,261,0.0,2.0,96,0.00,,SCT220,0.00,VWS V14.01,2013-08-10 04:16:00,
2013-08-10 00:21:00,72.6,71.4,29.76,West,261,0.0,3.0,96,0.00,,SCT220,0.00,VWS V14.01,2013-08-10 04:21:00,
2013-08-10 00:26:00,72.6,71.4,29.76,West,261,0.0,3.0,96,0.00,,SCT220,0.00,VWS V14.01,2013-08-10 04:26:00,
2013-08-10 00:31:00,72.6,71.4,29.76,West,261,0.0,0.0,96,0.00,,SCT220,0.00,VWS V14.01,2013-08-10 04:31:00,
2013-08-10 00:36:00,72.5,71.3,29.76,West,261,0.0,0.0,96,0.00,,SCT220,0.00,VWS V14.01,2013-08-10 04:36:00,
2013-08-10 00:41:00,72.5,71.3,29.77,West,261,0.0,0.0,96,0.00,,SCT220,0.00,VWS V14.01,2013-08-10 04:41:00,
2013-08-10 00:46:00,72.4,71.2,29.77,West,261,0.0,0.0,96,0.00,,SCT220,0.00,VWS V14.01,2013-08-10 04:46:00,
2013-08-10 00:51:00,72.3,71.1,29.76,West,261,0.0,0.0,96,0.00,,SCT220,0.00,VWS V14.01,2013-08-10 04:51:00,
2013-08-10 00:56:00,72.2,71.0,29.76,West,261,0.0,0.0,96,0.00,,SCT220,0.00,VWS V14.01,2013-08-10 04:56:00,
2013-08-10 01:01:00,72.2,71.0,29.76,West,261,0.0,0.0,96,0.00,,OVC070,0.00,VWS V14.01,2013-08-10 05:01:00,
2013-08-10 01:06:00,72.1,70.9,29.76,West,261,2.0,2.0,96,0.00,,OVC070,0.00,VWS V14.01,2013-08-10 05:06:00,
2013-08-10 01:11:00,72.1,70.9,29.77,West,261,0.0,3.0,96,0.00,,OVC070,0.00,VWS V14.01,2013-08-10 05:11:00,
2013-08-10 01:16:00,72.1,70.9,29.76,West,261,0.0,3.0,96,0.00,,OVC070,0.00,VWS V14.01,2013-08-10 05:16:00,
2013-08-10 01:21:00,72.0,70.8,29.76,West,261,0.0,3.0,96,0.00,,OVC070,0.00,VWS V14.01,2013-08-10 05:21:00,
2013-08-10 01:26:00,71.9,70.7,29.76,West,261,0.0,3.0,96,0.00,,OVC070,0.00,VWS V14.01,2013-08-10 05:26:00,
2013-08-10 01:31:00,72.0,70.8,29.76,West,261,0.0,0.0,96,0.00,,OVC070,0.00,VWS V14.01,2013-08-10 05:31:00,
2013-08-10 01:36:00,72.0,70.8,29.76,West,261,0.0,2.0,96,0.00,,OVC070,0.00,VWS V14.01,2013-08-10 05:36:00,
2013-08-10 01:41:00,71.9,70.7,29.76,West,261,0.0,2.0,96,0.00,,OVC070,0.00,VWS V14.01,2013-08-10 05:41:00,
2013-08-10 01:46:00,71.8,70.6,29.76,West,261,1.0,2.0,96,0.00,,OVC070,0.00,VWS V14.01,2013-08-10 05:46:00,
2013-08-10 01:51:00,71.8,70.6,29.76,West,261,1.0,4.0,96,0.00,,OVC070,0.00,VWS V14.01,2013-08-10 05:51:00,
2013-08-10 01:56:00,71.7,70.5,29.77,West,261,2.0,4.0,96,0.00,,OVC070,0.00,VWS V14.01,2013-08-10 05:56:00,
2013-08-10 02:01:00,71.6,70.4,29.77,West,261,0.0,0.0,96,0.00,,SCT060,0.00,VWS V14.01,2013-08-10 06:01:00,
2013-08-10 02:06:00,71.6,70.4,29.77,West,261,0.0,1.0,96,0.00,,SCT060,0.00,VWS V14.01,2013-08-10 06:06:00,
2013-08-10 02:11:00,71.5,70.3,29.77,West,261,0.0,1.0,96,0.00,,SCT060,0.00,VWS V14.01,2013-08-10 06:11:00,
2013-08-10 02:16:00,71.4,70.2,29.76,West,261,0.0,1.0,96,0.00,,SCT060,0.00,VWS V14.01,2013-08-10 06:16:00,
2013-08-10 02:21:00,71.3,70.1,29.77,West,261,0.0,2.0,96,0.00,,SCT060,0.00,VWS V14.01,2013-08-10 06:21:00,
2013-08-10 02:26:00,71.3,70.1,29.77,West,261,0.0,2.0,96,0.00,,SCT060,0.00,VWS V14.01,2013-08-10 06:26:00,
2013-08-10 02:31:00,71.2,70.0,29.77,West,261,0.0,1.0,96,0.00,,SCT060,0.00,VWS V14.01,2013-08-10 06:31:00,
2013-08-10 02:36:00,71.1,69.9,29.76,West,261,0.0,1.0,96,0.00,,SCT060,0.00,VWS V14.01,2013-08-10 06:36:00,
2013-08-10 02:41:00,71.1,69.9,29.76,West,261,0.0,1.0,96,0.00,,SCT060,0.00,VWS V14.01,2013-08-10 06:41:00,
2013-08-10 02:46:00,71.1,69.9,29.77,West,261,0.0,3.0,96,0.00,,SCT060,0.00,VWS V14.01,2013-08-10 06:46:00,
2013-08-10 02:51:00,71.1,69.9,29.77,West,261,0.0,3.0,96,0.00,,SCT060,0.00,VWS V14.01,2013-08-10 06:51:00,
2013-08-10 02:56:00,71.1,69.9,29.77,West,261,3.0,5.0,96,0.00,,SCT060,0.00,VWS V14.01,2013-08-10 06:56:00,
2013-08-10 03:01:00,71.1,69.9,29.77,West,261,2.0,3.0,96,0.00,,CLR,0.00,VWS V14.01,2013-08-10 07:01:00,
2013-08-10 03:06:00,71.1,69.9,29.77,West,261,2.0,3.0,96,0.00,,CLR,0.00,VWS V14.01,2013-08-10 07:06:00,
2013-08-10 03:11:00,71.0,69.8,29.77,West,261,3.0,5.0,96,0.00,,CLR,0.00,VWS V14.01,2013-08-10 07:11:00,
2013-08-10 03:16:00,71.0,69.8,29.76,West,261,0.0,5.0,96,0.00,,CLR,0.00,VWS V14.01,2013-08-10 07:16:00,
2013-08-10 03:21:00,70.9,69.7,29.77,West,261,0.0,5.0,96,0.00,,CLR,0.00,VWS V14.01,2013-08-10 07:21:00,
2013-08-10 03:26:00,70.8,69.6,29.77,West,261,0.0,5.0,96,0.00,,CLR,0.00,VWS V14.01,2013-08-10 07:26:00,
2013-08-10 03:31:00,70.8,69.6,29.77,West,261,1.0,1.0,96,0.00,,CLR,0.00,VWS V14.01,2013-08-10 07:31:00,
2013-08-10 03:36:00,70.6,69.4,29.78,West,261,4.0,4.0,96,0.00,,CLR,0.00,VWS V14.01,2013-08-10 07:36:00,
2013-08-10 03:41:00,70.5,69.3,29.78,West,261,0.0,4.0,96,0.00,,CLR,0.00,VWS V14.01,2013-08-10 07:41:00,
2013-08-10 03:46:00,70.4,69.2,29.78,West,261,0.0,4.0,96,0.00,,CLR,0.00,VWS V14.01,2013-08-10 07:46:00,
2013-08-10 03:51:00,70.4,69.2,29.78,West,261,2.0,5.0,96,0.00,,CLR,0.00,VWS V14.01,2013-08-10 07:51:00,
2013-08-10 03:56:00,70.3,69.1,29.78,West,261,0.0,5.0,96,0.01,,CLR,0.01,VWS V14.01,2013-08-10 07:56:00,
2013-08-10 04:01:00,70.2,69.0,29.78,West,261,2.0,4.0,96,0.01,,FEW220,0.01,VWS V14.01,2013-08-10 08:01:00,
2013-08-10 04:06:00,70.1,68.9,29.78,West,261,0.0,6.0,96,0.01,,FEW220,0.01,VWS V14.01,2013-08-10 08:06:00,
2013-08-10 04:11:00,70.1,68.9,29.78,West,261,5.0,7.0,96,0.01,,FEW220,0.01,VWS V14.01,2013-08-10 08:11:00,
2013-08-10 04:16:00,70.1,68.9,29.79,WNW,289,1.0,8.0,96,0.01,,FEW220,0.01,VWS V14.01,2013-08-10 08:16:00,
2013-08-10 04:21:00,70.0,68.8,29.79,West,276,0.0,8.0,96,0.01,,FEW220,0.01,VWS V14.01,2013-08-10 08:21:00,
2013-08-10 04:26:00,69.9,68.7,29.79,WNW,285,4.0,8.0,96,0.01,,FEW220,0.01,VWS V14.01,2013-08-10 08:26:00,
2013-08-10 04:31:00,69.9,68.4,29.79,WNW,286,2.0,4.0,95,0.01,,FEW220,0.01,VWS V14.01,2013-08-10 08:31:00,
2013-08-10 04:36:00,69.8,68.3,29.79,WNW,290,0.0,7.0,95,0.01,,FEW220,0.01,VWS V14.01,2013-08-10 08:36:00,
2013-08-10 04:41:00,69.7,68.2,29.79,West,278,0.0,7.0,95,0.01,,FEW220,0.01,VWS V14.01,2013-08-10 08:41:00,
2013-08-10 04:46:00,69.6,68.1,29.79,West,277,1.0,7.0,95,0.01,,FEW220,0.01,VWS V14.01,2013-08-10 08:46:00,
2013-08-10 04:51:00,69.5,68.0,29.79,West,279,4.0,7.0,95,0.01,,FEW220,0.01,VWS V14.01,2013-08-10 08:51:00,
2013-08-10 04:56:00,69.4,67.9,29.80,West,278,0.0,7.0,95,0.01,,FEW220,0.01,VWS V14.01,2013-08-10 08:56:00,
2013-08-10 05:01:00,69.3,67.8,29.79,West,271,0.0,0.0,95,0.00,,SCT220,0.01,VWS V14.01,2013-08-10 09:01:00,
2013-08-10 05:06:00,69.2,67.7,29.79,West,274,0.0,9.0,95,0.00,,SCT220,0.01,VWS V14.01,2013-08-10 09:06:00,
2013-08-10 05:11:00,69.2,67.7,29.80,West,266,5.0,9.0,95,0.00,,SCT220,0.01,VWS V14.01,2013-08-10 09:11:00,
2013-08-10 05:16:00,69.1,67.3,29.80,West,272,2.0,9.0,94,0.00,,SCT220,0.01,VWS V14.01,2013-08-10 09:16:00,
2013-08-10 05:21:00,69.0,67.2,29.80,West,281,4.0,9.0,94,0.00,,SCT220,0.01,VWS V14.01,2013-08-10 09:21:00,
2013-08-10 05:26:00,69.0,67.2,29.80,West,279,2.0,9.0,94,0.00,,SCT220,0.01,VWS V14.01,2013-08-10 09:26:00,
2013-08-10 05:31:00,68.9,67.1,29.81,West,269,2.0,6.0,94,0.00,,SCT220,0.01,VWS V14.01,2013-08-10 09:31:00,
2013-08-10 05:36:00,68.8,67.0,29.81,West,271,2.0,9.0,94,0.00,,SCT220,0.01,VWS V14.01,2013-08-10 09:36:00,
2013-08-10 05:41:00,68.7,66.6,29.81,West,275,4.0,9.0,93,0.00,,SCT220,0.01,VWS V14.01,2013-08-10 09:41:00,
2013-08-10 05:46:00,68.6,66.5,29.81,West,277,6.0,9.0,93,0.00,,SCT220,0.01,VWS V14.01,2013-08-10 09:46:00,
2013-08-10 05:51:00,68.5,66.4,29.81,WSW,253,2.0,9.0,93,0.00,,SCT220,0.01,VWS V14.01,2013-08-10 09:51:00,
2013-08-10 05:56:00,68.4,66.3,29.81,West,277,6.0,9.0,93,0.00,,SCT220,0.01,VWS V14.01,2013-08-10 09:56:00,
2013-08-10 06:01:00,68.4,66.3,29.81,West,273,6.0,6.0,93,0.00,,SCT220,0.01,VWS V14.01,2013-08-10 10:01:00,
2013-08-10 06:06:00,68.3,66.2,29.81,West,273,6.0,6.0,93,0.00,,SCT220,0.01,VWS V14.01,2013-08-10 10:06:00,
2013-08-10 06:11:00,68.2,66.1,29.82,West,277,6.0,6.0,93,0.00,,SCT220,0.01,VWS V14.01,2013-08-10 10:11:00,
2013-08-10 06:16:00,68.2,66.1,29.82,West,277,5.0,6.0,93,0.00,,SCT220,0.01,VWS V14.01,2013-08-10 10:16:00,
2013-08-10 06:21:00,68.1,66.0,29.82,West,276,5.0,9.0,93,0.00,,SCT220,0.01,VWS V14.01,2013-08-10 10:21:00,
2013-08-10 06:26:00,68.1,66.0,29.82,West,279,2.0,10.0,93,0.00,,SCT220,0.01,VWS V14.01,2013-08-10 10:26:00,
2013-08-10 06:31:00,68.1,66.0,29.83,West,275,2.0,4.0,93,0.00,,SCT220,0.01,VWS V14.01,2013-08-10 10:31:00,
2013-08-10 06:36:00,68.2,66.1,29.83,West,279,0.0,8.0,93,0.00,,SCT220,0.01,VWS V14.01,2013-08-10 10:36:00,
2013-08-10 06:41:00,68.2,66.1,29.83,West,278,2.0,12.0,93,0.00,,SCT220,0.01,VWS V14.01,2013-08-10 10:41:00,
2013-08-10 06:46:00,68.3,66.2,29.83,West,271,2.0,12.0,93,0.00,,SCT220,0.01,VWS V14.01,2013-08-10 10:46:00,
2013-08-10 06:51:00,68.4,66.0,29.83,West,277,7.0,12.0,92,0.00,,SCT220,0.01,VWS V14.01,2013-08-10 10:51:00,
2013-08-10 06:56:00,68.4,66.0,29.83,West,275,5.0,12.0,92,0.00,,SCT220,0.01,VWS V14.01,2013-08-10 10:56:00,
2013-08-10 07:01:00,68.5,66.1,29.84,West,273,2.0,4.0,92,0.00,,SCT220,0.01,VWS V14.01,2013-08-10 11:01:00,
2013-08-10 07:06:00,68.6,66.2,29.84,West,267,8.0,13.0,92,0.00,,SCT220,0.01,VWS V14.01,2013-08-10 11:06:00,
2013-08-10 07:11:00,68.7,66.0,29.84,West,281,4.0,13.0,91,0.00,,SCT220,0.01,VWS V14.01,2013-08-10 11:11:00,
2013-08-10 07:16:00,68.8,66.1,29.84,West,274,11.0,13.0,91,0.00,,SCT220,0.01,VWS V14.01,2013-08-10 11:16:00,
2013-08-10 07:21:00,69.0,66.3,29.84,West,279,4.0,13.0,91,0.00,,SCT220,0.01,VWS V14.01,2013-08-10 11:21:00,
2013-08-10 07:26:00,69.2,66.2,29.84,West,275,9.0,14.0,90,0.00,,SCT220,0.01,VWS V14.01,2013-08-10 11:26:00,
2013-08-10 07:31:00,69.4,66.3,29.84,West,275,9.0,11.0,90,0.00,,SCT220,0.01,VWS V14.01,2013-08-10 11:31:00,
2013-08-10 07:36:00,69.5,66.1,29.84,West,279,4.0,11.0,89,0.00,,SCT220,0.01,VWS V14.01,2013-08-10 11:36:00,
2013-08-10 07:41:00,69.7,66.3,29.85,West,264,2.0,13.0,89,0.00,,SCT220,0.01,VWS V14.01,2013-08-10 11:41:00,
2013-08-10 07:46:00,70.0,66.6,29.85,West,271,6.0,13.0,89,0.00,,SCT220,0.01,VWS V14.01,2013-08-10 11:46:00,
2013-08-10 07:51:00,70.3,66.2,29.85,West,273,5.0,13.0,87,0.00,,SCT220,0.01,VWS V14.01,2013-08-10 11:51:00,
2013-08-10 07:56:00,70.6,66.6,29.85,West,275,6.0,13.0,87,0.00,,SCT220,0.01,VWS V14.01,2013-08-10 11:56:00,
2013-08-10 08:01:00,70.9,66.2,29.85,West,278,4.0,5.0,85,0.00,,SCT220,0.01,VWS V14.01,2013-08-10 12:01:00,
2013-08-10 08:06:00,71.1,66.0,29.85,West,277,7.0,11.0,84,0.00,,SCT220,0.01,VWS V14.01,2013-08-10 12:06:00,
2013-08-10 08:11:00,71.2,66.1,29.85,West,279,4.0,16.0,84,0.00,,SCT220,0.01,VWS V14.01,2013-08-10 12:11:00,
2013-08-10 08:16:00,71.0,65.6,29.85,West,264,10.0,16.0,83,0.00,,SCT220,0.01,VWS V14.01,2013-08-10 12:16:00,
2013-08-10 08:21:00,70.7,65.3,29.85,WNW,286,5.0,16.0,83,0.00,,SCT220,0.01,VWS V14.01,2013-08-10 12:21:00,
2013-08-10 08:26:00,70.5,65.1,29.85,West,261,2.0,16.0,83,0.00,,SCT220,0.01,VWS V14.01,2013-08-10 12:26:00,
2013-08-10 08:31:00,70.7,65.6,29.85,West,277,5.0,11.0,84,0.00,,SCT220,0.01,VWS V14.01,2013-08-10 12:31:00,
2013-08-10 08:36:00,70.9,65.5,29.86,West,279,7.0,11.0,83,0.00,,SCT220,0.01,VWS V14.01,2013-08-10 12:36:00,
2013-08-10 08:41:00,71.1,65.7,29.86,West,276,4.0,11.0,83,0.00,,SCT220,0.01,VWS V14.01,2013-08-10 12:41:00,
2013-08-10 08:46:00,71.2,64.7,29.86,West,260,4.0,12.0,80,0.00,,SCT220,0.01,VWS V14.01,2013-08-10 12:46:00,
2013-08-10 08:51:00,71.4,64.9,29.86,West,269,5.0,12.0,80,0.00,,SCT220,0.01,VWS V14.01,2013-08-10 12:51:00,
2013-08-10 08:56:00,71.7,64.8,29.86,West,277,8.0,12.0,79,0.00,,SCT220,0.01,VWS V14.01,2013-08-10 12:56:00,
2013-08-10 09:01:00,72.3,65.4,29.86,West,277,7.0,7.0,79,0.00,,SCT220,0.01,VWS V14.01,2013-08-10 13:01:00,
2013-08-10 09:06:00,73.0,65.7,29.86,WNW,301,0.0,8.0,78,0.00,,SCT220,0.01,VWS V14.01,2013-08-10 13:06:00,
2013-08-10 09:11:00,73.7,66.1,29.86,West,275,0.0,8.0,77,0.00,,SCT220,0.01,VWS V14.01,2013-08-10 13:11:00,
2013-08-10 09:16:00,74.0,65.2,29.86,West,279,6.0,8.0,74,0.00,,SCT220,0.01,VWS V14.01,2013-08-10 13:16:00,
2013-08-10 09:21:00,73.9,64.3,29.86,WNW,298,5.0,15.0,72,0.00,,SCT220,0.01,VWS V14.01,2013-08-10 13:21:00,
2013-08-10 09:26:00,74.1,64.9,29.86,West,267,7.0,15.0,73,0.00,,SCT220,0.01,VWS V14.01,2013-08-10 13:26:00,
2013-08-10 09:31:00,74.4,65.6,29.86,West,264,8.0,11.0,74,0.00,,SCT220,0.01,VWS V14.01,2013-08-10 13:31:00,
2013-08-10 09:36:00,74.5,64.1,29.85,WNW,285,6.0,14.0,70,0.00,,SCT220,0.01,VWS V14.01,2013-08-10 13:36:00,
2013-08-10 09:41:00,74.6,63.8,29.85,NNW,348,4.0,14.0,69,0.00,,SCT220,0.01,VWS V14.01,2013-08-10 13:41:00,
2013-08-10 09:46:00,74.9,64.1,29.85,WNW,282,0.0,14.0,69,0.00,,SCT220,0.01,VWS V14.01,2013-08-10 13:46:00,
2013-08-10 09:51:00,75.6,63.5,29.86,WNW,299,2.0,14.0,66,0.00,,SCT220,0.01,VWS V14.01,2013-08-10 13:51:00,
2013-08-10 09:56:00,76.2,63.6,29.86,WNW,283,1.0,14.0,65,0.00,,SCT220,0.01,VWS V14.01,2013-08-10 13:56:00,
2013-08-10 10:01:00,76.9,63.4,29.86,West,273,4.0,5.0,63,0.00,,SCT250,0.01,VWS V14.01,2013-08-10 14:01:00,
2013-08-10 10:06:00,76.9,62.4,29.86,West,280,7.0,16.0,61,0.00,,SCT250,0.01,VWS V14.01,2013-08-10 14:06:00,
2013-08-10 10:11:00,77.3,63.3,29.86,NW,323,1.0,16.0,62,0.00,,SCT250,0.01,VWS V14.01,2013-08-10 14:11:00,
2013-08-10 10:16:00,77.8,62.8,29.86,West,273,0.0,16.0,60,0.00,,SCT250,0.01,VWS V14.01,2013-08-10 14:16:00,
2013-08-10 10:21:00,78.3,63.3,29.86,WNW,296,2.0,16.0,60,0.00,,SCT250,0.01,VWS V14.01,2013-08-10 14:21:00,
2013-08-10 10:26:00,78.7,62.7,29.86,West,272,5.0,16.0,58,0.00,,SCT250,0.01,VWS V14.01,2013-08-10 14:26:00,
2013-08-10 10:31:00,78.7,61.2,29.86,WNW,297,5.0,5.0,55,0.00,,SCT250,0.01,VWS V14.01,2013-08-10 14:31:00,
2013-08-10 10:36:00,78.2,61.7,29.86,WNW,300,2.0,16.0,57,0.00,,SCT250,0.01,VWS V14.01,2013-08-10 14:36:00,
2013-08-10 10:41:00,78.5,61.0,29.86,West,270,9.0,16.0,55,0.00,,SCT250,0.01,VWS V14.01,2013-08-10 14:41:00,
2013-08-10 10:46:00,78.3,61.3,29.86,WNW,285,0.0,16.0,56,0.00,,SCT250,0.01,VWS V14.01,2013-08-10 14:46:00,
2013-08-10 10:51:00,78.8,61.8,29.86,West,268,2.0,16.0,56,0.00,,SCT250,0.01,VWS V14.01,2013-08-10 14:51:00,
2013-08-10 10:56:00,79.1,62.1,29.86,WNW,283,8.0,16.0,56,0.00,,SCT250,0.01,VWS V14.01,2013-08-10 14:56:00,
2013-08-10 11:01:00,79.4,61.8,29.85,West,278,6.0,8.0,55,0.00,,SCT250,0.01,VWS V14.01,2013-08-10 15:01:00,
2013-08-10 11:06:00,78.9,60.3,29.85,WSW,248,8.0,14.0,53,0.00,,SCT250,0.01,VWS V14.01,2013-08-10 15:06:00,
2013-08-10 11:11:00,79.1,61.6,29.85,NW,318,0.0,14.0,55,0.00,,SCT250,0.01,VWS V14.01,2013-08-10 15:11:00,
2013-08-10 11:16:00,79.8,61.7,29.85,West,262,4.0,14.0,54,0.00,,SCT250,0.01,VWS V14.01,2013-08-10 15:16:00,
2013-08-10 11:21:00,80.4,61.2,29.85,West,272,5.0,14.0,52,0.00,,SCT250,0.01,VWS V14.01,2013-08-10 15:21:00,
2013-08-10 11:26:00,80.4,61.2,29.85,West,271,2.0,14.0,52,0.00,,SCT250,0.01,VWS V14.01,2013-08-10 15:26:00,
2013-08-10 11:31:00,80.3,61.1,29.84,NW,313,4.0,6.0,52,0.00,,SCT250,0.01,VWS V14.01,2013-08-10 15:31:00,
2013-08-10 11:36:00,80.3,62.2,29.85,West,279,0.0,13.0,54,0.00,,SCT250,0.01,VWS V14.01,2013-08-10 15:36:00,
2013-08-10 11:41:00,80.6,60.8,29.84,West,279,5.0,13.0,51,0.00,,SCT250,0.01,VWS V14.01,2013-08-10 15:41:00,
2013-08-10 11:46:00,80.7,60.9,29.85,WSW,251,4.0,14.0,51,0.00,,SCT250,0.01,VWS V14.01,2013-08-10 15:46:00,
2013-08-10 11:51:00,81.1,61.3,29.84,West,281,7.0,15.0,51,0.00,,SCT250,0.01,VWS V14.01,2013-08-10 15:51:00,
2013-08-10 11:56:00,81.1,62.9,29.85,NW,304,8.0,15.0,54,0.00,,SCT250,0.01,VWS V14.01,2013-08-10 15:56:00,
2013-08-10 12:01:00,81.1,61.3,29.84,West,275,5.0,5.0,51,0.00,,SCT220,0.01,VWS V14.01,2013-08-10 16:01:00,
2013-08-10 12:06:00,81.1,60.7,29.84,West,269,5.0,15.0,50,0.00,,SCT220,0.01,VWS V14.01,2013-08-10 16:06:00,
2013-08-10 12:11:00,81.1,60.7,29.84,WNW,300,1.0,18.0,50,0.00,,SCT220,0.01,VWS V14.01,2013-08-10 16:11:00,
2013-08-10 12:16:00,81.4,61.5,29.84,WNW,302,6.0,18.0,51,0.00,,SCT220,0.01,VWS V14.01,2013-08-10 16:16:00,
2013-08-10 12:21:00,81.4,60.4,29.84,West,279,9.0,21.0,49,0.00,,SCT220,0.01,VWS V14.01,2013-08-10 16:21:00,
2013-08-10 12:26:00,80.9,60.5,29.84,West,273,7.0,21.0,50,0.00,,SCT220,0.01,VWS V14.01,2013-08-10 16:26:00,
2013-08-10 12:31:00,80.6,61.4,29.84,South,189,4.0,4.0,52,0.00,,SCT220,0.01,VWS V14.01,2013-08-10 16:31:00,
2013-08-10 12:36:00,81.1,61.8,29.84,WNW,286,1.0,9.0,52,0.00,,SCT220,0.01,VWS V14.01,2013-08-10 16:36:00,
2013-08-10 12:41:00,81.6,61.7,29.85,NW,305,2.0,12.0,51,0.00,,SCT220,0.01,VWS V14.01,2013-08-10 16:41:00,
2013-08-10 12:46:00,81.9,61.5,29.85,NW,322,4.0,13.0,50,0.00,,SCT220,0.01,VWS V14.01,2013-08-10 16:46:00,
2013-08-10 12:51:00,81.5,60.5,29.85,West,276,4.0,21.0,49,0.00,,SCT220,0.01,VWS V14.01,2013-08-10 16:51:00,
2013-08-10 12:56:00,81.2,59.7,29.85,WNW,292,13.0,21.0,48,0.00,,SCT220,0.01,VWS V14.01,2013-08-10 16:56:00,
2013-08-10 13:01:00,80.8,59.9,29.85,West,261,3.0,21.0,49,0.00,,SCT220,0.01,VWS V14.01,2013-08-10 17:01:00,
2013-08-10 13:06:00,81.4,61.5,29.85,NNW,341,0.0,10.0,51,0.00,,SCT220,0.01,VWS V14.01,2013-08-10 17:06:00,
2013-08-10 13:11:00,82.4,60.8,29.85,WNW,300,2.0,10.0,48,0.00,,SCT220,0.01,VWS V14.01,2013-08-10 17:11:00,
2013-08-10 13:16:00,82.6,61.5,29.85,WNW,282,9.0,13.0,49,0.00,,SCT220,0.01,VWS V14.01,2013-08-10 17:16:00,
2013-08-10 13:21:00,82.0,60.4,29.85,WNW,285,4.0,18.0,48,0.00,,SCT220,0.01,VWS V14.01,2013-08-10 17:21:00,
2013-08-10 13:26:00,82.3,61.2,29.84,SW,225,5.0,18.0,49,0.00,,SCT220,0.01,VWS V14.01,2013-08-10 17:26:00,
2013-08-10 13:31:00,82.8,59.9,29.85,WNW,298,9.0,19.0,46,0.00,,SCT220,0.01,VWS V14.01,2013-08-10 17:31:00,
2013-08-10 13:36:00,83.1,59.6,29.85,NNW,329,1.0,15.0,45,0.00,,SCT220,0.01,VWS V14.01,2013-08-10 17:36:00,
2013-08-10 13:41:00,83.4,61.1,29.85,NNW,343,7.0,15.0,47,0.00,,SCT220,0.01,VWS V14.01,2013-08-10 17:41:00,
2013-08-10 13:46:00,83.7,61.3,29.85,West,280,6.0,15.0,47,0.00,,SCT220,0.01,VWS V14.01,2013-08-10 17:46:00,
2013-08-10 13:51:00,83.7,60.1,29.85,West,269,5.0,15.0,45,0.00,,SCT220,0.01,VWS V14.01,2013-08-10 17:51:00,
2013-08-10 13:56:00,82.9,58.8,29.85,West,275,7.0,15.0,44,0.00,,SCT220,0.01,VWS V14.01,2013-08-10 17:56:00,
2013-08-10 14:01:00,82.9,58.8,29.85,WNW,299,6.0,15.0,44,0.00,,SCT250,0.01,VWS V14.01,2013-08-10 18:01:00,
2013-08-10 14:06:00,83.7,59.5,29.85,NW,317,1.0,14.0,44,0.00,,SCT250,0.01,VWS V14.01,2013-08-10 18:06:00,
2013-08-10 14:11:00,84.4,60.1,29.85,WNW,302,7.0,14.0,44,0.00,,SCT250,0.01,VWS V14.01,2013-08-10 18:11:00,
2013-08-10 14:16:00,84.0,59.1,29.84,West,277,7.0,21.0,43,0.00,,SCT250,0.01,VWS V14.01,2013-08-10 18:16:00,
2013-08-10 14:21:00,83.7,60.7,29.84,West,277,2.0,21.0,46,0.00,,SCT250,0.01,VWS V14.01,2013-08-10 18:21:00,
2013-08-10 14:26:00,83.9,60.3,29.84,WNW,286,8.0,21.0,45,0.00,,SCT250,0.01,VWS V14.01,2013-08-10 18:26:00,
2013-08-10 14:31:00,83.8,58.9,29.85,West,279,5.0,21.0,43,0.00,,SCT250,0.01,VWS V14.01,2013-08-10 18:31:00,
2013-08-10 14:36:00,83.8,60.2,29.85,NW,325,4.0,14.0,45,0.00,,SCT250,0.01,VWS V14.01,2013-08-10 18:36:00,
2013-08-10 14:41:00,84.3,59.4,29.85,WNW,296,6.0,14.0,43,0.00,,SCT250,0.01,VWS V14.01,2013-08-10 18:41:00,
2013-08-10 14:46:00,84.5,58.9,29.85,NNW,342,2.0,14.0,42,0.00,,SCT250,0.01,VWS V14.01,2013-08-10 18:46:00,
2013-08-10 14:51:00,84.5,57.5,29.85,West,267,12.0,15.0,40,0.00,,SCT250,0.01,VWS V14.01,2013-08-10 18:51:00,
2013-08-10 14:56:00,84.2,57.3,29.85,West,279,7.0,15.0,40,0.00,,SCT250,0.01,VWS V14.01,2013-08-10 18:56:00,
2013-08-10 15:01:00,84.2,57.3,29.84,West,277,1.0,15.0,40,0.00,,BKN250,0.01,VWS V14.01,2013-08-10 19:01:00,
2013-08-10 15:06:00,84.5,58.2,29.85,WSW,242,2.0,11.0,41,0.00,,BKN250,0.01,VWS V14.01,2013-08-10 19:06:00,
2013-08-10 15:11:00,84.6,56.9,29.85,WSW,253,4.0,15.0,39,0.00,,BKN250,0.01,VWS V14.01,2013-08-10 19:11:00,
2013-08-10 15:16:00,85.0,58.0,29.84,West,275,7.0,15.0,40,0.00,,BKN250,0.01,VWS V14.01,2013-08-10 19:16:00,
2013-08-10 15:21:00,85.2,56.8,29.84,WNW,290,5.0,15.0,38,0.00,,BKN250,0.01,VWS V14.01,2013-08-10 19:21:00,
2013-08-10 15:26:00,85.2,56.8,29.85,WNW,303,2.0,15.0,38,0.00,,BKN250,0.01,VWS V14.01,2013-08-10 19:26:00,
2013-08-10 15:31:00,85.4,57.7,29.85,NW,326,4.0,15.0,39,0.00,,BKN250,0.01,VWS V14.01,2013-08-10 19:31:00,
2013-08-10 15:36:00,85.5,56.3,29.85,WNW,298,6.0,11.0,37,0.00,,BKN250,0.01,VWS V14.01,2013-08-10 19:36:00,
2013-08-10 15:41:00,85.1,55.9,29.85,West,275,1.0,13.0,37,0.00,,BKN250,0.01,VWS V14.01,2013-08-10 19:41:00,
2013-08-10 15:46:00,85.5,56.3,29.85,WNW,293,4.0,13.0,37,0.00,,BKN250,0.01,VWS V14.01,2013-08-10 19:46:00,
2013-08-10 15:51:00,85.7,56.5,29.85,NNW,331,2.0,13.0,37,0.00,,BKN250,0.01,VWS V14.01,2013-08-10 19:51:00,
2013-08-10 15:56:00,85.4,55.4,29.85,WNW,288,4.0,13.0,36,0.00,,BKN250,0.01,VWS V14.01,2013-08-10 19:56:00,
2013-08-10 16:01:00,85.0,55.8,29.85,WNW,282,5.0,13.0,37,0.00,,BKN250,0.01,VWS V14.01,2013-08-10 20:01:00,
2013-08-10 16:06:00,84.7,54.8,29.85,NNW,334,2.0,13.0,36,0.00,,BKN250,0.01,VWS V14.01,2013-08-10 20:06:00,
2013-08-10 16:11:00,84.9,55.8,29.85,NW,304,11.0,14.0,37,0.00,,BKN250,0.01,VWS V14.01,2013-08-10 20:11:00,
2013-08-10 16:16:00,85.0,55.8,29.85,North,355,4.0,14.0,37,0.00,,BKN250,0.01,VWS V14.01,2013-08-10 20:16:00,
2013-08-10 16:21:00,85.0,55.8,29.85,WNW,298,6.0,14.0,37,0.00,,BKN250,0.01,VWS V14.01,2013-08-10 20:21:00,
2013-08-10 16:26:00,85.0,55.1,29.85,NNW,329,0.0,14.0,36,0.00,,BKN250,0.01,VWS V14.01,2013-08-10 20:26:00,
2013-08-10 16:31:00,85.0,55.8,29.85,NW,305,2.0,14.0,37,0.00,,BKN250,0.01,VWS V14.01,2013-08-10 20:31:00,
2013-08-10 16:36:00,85.0,55.8,29.86,West,266,5.0,8.0,37,0.00,,BKN250,0.01,VWS V14.01,2013-08-10 20:36:00,
2013-08-10 16:41:00,84.9,55.8,29.86,WNW,287,0.0,11.0,37,0.00,,BKN250,0.01,VWS V14.01,2013-08-10 20:41:00,
2013-08-10 16:46:00,84.9,55.8,29.86,NW,309,6.0,11.0,37,0.00,,BKN250,0.01,VWS V14.01,2013-08-10 20:46:00,
2013-08-10 16:51:00,84.9,55.0,29.86,West,265,8.0,12.0,36,0.00,,BKN250,0.01,VWS V14.01,2013-08-10 20:51:00,
2013-08-10 16:56:00,84.4,55.3,29.86,NW,305,4.0,14.0,37,0.00,,BKN250,0.01,VWS V14.01,2013-08-10 20:56:00,
2013-08-10 17:01:00,84.2,55.9,29.86,West,277,2.0,14.0,38,0.00,,SCT250,0.01,VWS V14.01,2013-08-10 21:01:00,
2013-08-10 17:06:00,84.3,56.7,29.86,WNW,283,0.0,6.0,39,0.00,,SCT250,0.01,VWS V14.01,2013-08-10 21:06:00,
2013-08-10 17:11:00,84.4,56.0,29.86,West,271,6.0,11.0,38,0.00,,SCT250,0.01,VWS V14.01,2013-08-10 21:11:00,
2013-08-10 17:16:00,84.4,56.8,29.86,WSW,255,7.0,11.0,39,0.00,,SCT250,0.01,VWS V14.01,2013-08-10 21:16:00,
2013-08-10 17:21:00,84.1,56.5,29.86,West,263,3.0,11.0,39,0.00,,SCT250,0.01,VWS V14.01,2013-08-10 21:21:00,
2013-08-10 17:26:00,84.1,57.2,29.87,NNW,338,6.0,11.0,40,0.00,,SCT250,0.01,VWS V14.01,2013-08-10 21:26:00,
2013-08-10 17:31:00,84.3,56.7,29.87,North,5,4.0,11.0,39,0.00,,SCT250,0.01,VWS V14.01,2013-08-10 21:31:00,
2013-08-10 17:36:00,84.5,56.8,29.87,WNW,282,4.0,8.0,39,0.00,,SCT250,0.01,VWS V14.01,2013-08-10 21:36:00,
2013-08-10 17:41:00,84.0,56.4,29.87,West,279,2.0,8.0,39,0.00,,SCT250,0.01,VWS V14.01,2013-08-10 21:41:00,
2013-08-10 17:46:00,83.6,56.8,29.87,WNW,293,0.0,8.0,40,0.00,,SCT250,0.01,VWS V14.01,2013-08-10 21:46:00,
2013-08-10 17:51:00,82.6,56.5,29.87,WSW,258,2.0,8.0,41,0.00,,SCT250,0.01,VWS V14.01,2013-08-10 21:51:00,
2013-08-10 17:56:00,81.9,55.9,29.87,WNW,285,0.0,8.0,41,0.00,,SCT250,0.01,VWS V14.01,2013-08-10 21:56:00,
2013-08-10 18:01:00,81.8,55.1,29.87,WNW,294,0.0,8.0,40,0.00,,SCT250,0.01,VWS V14.01,2013-08-10 22:01:00,
2013-08-10 18:06:00,82.0,55.3,29.87,WNW,294,2.0,4.0,40,0.00,,SCT250,0.01,VWS V14.01,2013-08-10 22:06:00,
2013-08-10 18:11:00,81.8,55.1,29.88,West,267,0.0,6.0,40,0.00,,SCT250,0.01,VWS V14.01,2013-08-10 22:11:00,
2013-08-10 18:16:00,81.4,53.4,29.88,WNW,290,4.0,8.0,38,0.00,,SCT250,0.01,VWS V14.01,2013-08-10 22:16:00,
2013-08-10 18:21:00,81.2,53.9,29.88,West,270,0.0,8.0,39,0.00,,SCT250,0.01,VWS V14.01,2013-08-10 22:21:00,
2013-08-10 18:26:00,80.9,53.7,29.88,North,350,6.0,8.0,39,0.00,,SCT250,0.01,VWS V14.01,2013-08-10 22:26:00,
2013-08-10 18:31:00,80.4,54.6,29.89,NNW,339,0.0,8.0,41,0.00,,SCT250,0.01,VWS V14.01,2013-08-10 22:31:00,
2013-08-10 18:36:00,80.0,54.9,29.89,NNW,346,0.0,5.0,42,0.00,,SCT250,0.01,VWS V14.01,2013-08-10 22:36:00,
2013-08-10 18:41:00,79.9,54.8,29.89,NNW,346,0.0,5.0,42,0.00,,SCT250,0.01,VWS V14.01,2013-08-10 22:41:00,
2013-08-10 18:46:00,80.1,55.6,29.89,WNW,299,0.0,5.0,43,0.00,,SCT250,0.01,VWS V14.01,2013-08-10 22:46:00,
2013-08-10 18:51:00,80.5,55.3,29.89,WNW,298,0.0,5.0,42,0.00,,SCT250,0.01,VWS V14.01,2013-08-10 22:51:00,
2013-08-10 18:56:00,80.9,55.7,29.89,WNW,299,2.0,5.0,42,0.00,,SCT250,0.01,VWS V14.01,2013-08-10 22:56:00,
2013-08-10 19:01:00,80.8,55.6,29.90,WNW,300,0.0,5.0,42,0.00,,SCT250,0.01,VWS V14.01,2013-08-10 23:01:00,
2013-08-10 19:06:00,80.3,55.8,29.90,WNW,300,0.0,4.0,43,0.00,,SCT250,0.01,VWS V14.01,2013-08-10 23:06:00,
2013-08-10 19:11:00,80.0,56.2,29.90,WNW,300,0.0,4.0,44,0.00,,SCT250,0.01,VWS V14.01,2013-08-10 23:11:00,
2013-08-10 19:16:00,79.7,55.9,29.90,WNW,300,0.0,4.0,44,0.00,,SCT250,0.01,VWS V14.01,2013-08-10 23:16:00,
2013-08-10 19:21:00,79.5,56.3,29.90,WNW,300,0.0,4.0,45,0.00,,SCT250,0.01,VWS V14.01,2013-08-10 23:21:00,
2013-08-10 19:26:00,79.2,56.7,29.90,WNW,300,0.0,4.0,46,0.00,,SCT250,0.01,VWS V14.01,2013-08-10 23:26:00,
2013-08-10 19:31:00,78.7,56.2,29.90,WNW,300,0.0,4.0,46,0.00,,SCT250,0.01,VWS V14.01,2013-08-10 23:31:00,
2013-08-10 19:36:00,78.3,56.4,29.90,WNW,300,0.0,0.0,47,0.00,,SCT250,0.01,VWS V14.01,2013-08-10 23:36:00,
2013-08-10 19:41:00,77.8,56.6,29.90,WNW,300,0.0,0.0,48,0.00,,SCT250,0.01,VWS V14.01,2013-08-10 23:41:00,
2013-08-10 19:46:00,77.0,55.8,29.91,WNW,300,0.0,5.0,48,0.00,,SCT250,0.01,VWS V14.01,2013-08-10 23:46:00,
2013-08-10 19:51:00,76.3,56.3,29.91,WNW,300,0.0,5.0,50,0.00,,SCT250,0.01,VWS V14.01,2013-08-10 23:51:00,
2013-08-10 19:56:00,75.8,55.9,29.91,WNW,300,0.0,5.0,50,0.00,,SCT250,0.01,VWS V14.01,2013-08-10 23:56:00,
2013-08-10 20:01:00,75.3,55.4,29.91,WNW,300,0.0,5.0,50,0.00,,SCT280,0.01,VWS V14.01,2013-08-11 00:01:00,
2013-08-10 20:06:00,74.8,55.5,29.91,WNW,300,4.0,4.0,51,0.00,,SCT280,0.01,VWS V14.01,2013-08-11 00:06:00,
2013-08-10 20:11:00,74.4,55.7,29.91,WNW,300,0.0,4.0,52,0.00,,SCT280,0.01,VWS V14.01,2013-08-11 00:11:00,
2013-08-10 20:16:00,74.0,55.8,29.92,WNW,300,0.0,4.0,53,0.00,,SCT280,0.01,VWS V14.01,2013-08-11 00:16:00,
2013-08-10 20:21:00,73.8,56.1,29.92,WNW,300,0.0,4.0,54,0.00,,SCT280,0.01,VWS V14.01,2013-08-11 00:21:00,
2013-08-10 20:26:00,73.4,55.8,29.92,WNW,300,0.0,4.0,54,0.00,,SCT280,0.01,VWS V14.01,2013-08-11 00:26:00,
2013-08-10 20:31:00,73.1,55.5,29.92,WNW,300,0.0,4.0,54,0.00,,SCT280,0.01,VWS V14.01,2013-08-11 00:31:00,
2013-08-10 20:36:00,72.9,55.8,29.93,WNW,300,0.0,0.0,55,0.00,,SCT280,0.01,VWS V14.01,2013-08-11 00:36:00,
2013-08-10 20:41:00,72.6,55.5,29.93,WNW,300,0.0,0.0,55,0.00,,SCT280,0.01,VWS V14.01,2013-08-11 00:41:00,
2013-08-10 20:46:00,72.4,55.8,29.93,WNW,300,0.0,0.0,56,0.00,,SCT280,0.01,VWS V14.01,2013-08-11 00:46:00,
2013-08-10 20:51:00,72.2,56.1,29.93,WNW,300,0.0,0.0,57,0.00,,SCT280,0.01,VWS V14.01,2013-08-11 00:51:00,
2013-08-10 20:56:00,71.9,56.3,29.93,WNW,300,0.0,4.0,58,0.00,,SCT280,0.01,VWS V14.01,2013-08-11 00:56:00,
2013-08-10 21:01:00,71.7,56.2,29.94,WNW,300,0.0,4.0,58,0.00,,FEW280,0.01,VWS V14.01,2013-08-11 01:01:00,
2013-08-10 21:06:00,71.5,56.4,29.94,WNW,300,0.0,0.0,59,0.00,,FEW280,0.01,VWS V14.01,2013-08-11 01:06:00,
2013-08-10 21:11:00,71.3,56.7,29.94,WNW,300,0.0,0.0,60,0.00,,FEW280,0.01,VWS V14.01,2013-08-11 01:11:00,
2013-08-10 21:16:00,71.0,56.4,29.95,WNW,300,0.0,0.0,60,0.00,,FEW280,0.01,VWS V14.01,2013-08-11 01:16:00,
2013-08-10 21:21:00,70.8,56.7,29.95,WNW,300,0.0,0.0,61,0.00,,FEW280,0.01,VWS V14.01,2013-08-11 01:21:00,
2013-08-10 21:26:00,70.5,56.9,29.95,WNW,300,0.0,4.0,62,0.00,,FEW280,0.01,VWS V14.01,2013-08-11 01:26:00,
2013-08-10 21:31:00,70.2,57.0,29.95,WNW,300,0.0,4.0,63,0.00,,FEW280,0.01,VWS V14.01,2013-08-11 01:31:00,
2013-08-10 21:36:00,70.0,57.3,29.95,WNW,300,0.0,0.0,64,0.00,,FEW280,0.01,VWS V14.01,2013-08-11 01:36:00,
2013-08-10 21:41:00,69.7,57.0,29.95,WNW,300,0.0,1.0,64,0.00,,FEW280,0.01,VWS V14.01,2013-08-11 01:41:00,
2013-08-10 21:46:00,69.5,57.7,29.95,WNW,300,0.0,1.0,66,0.00,,FEW280,0.01,VWS V14.01,2013-08-11 01:46:00,
2013-08-10 21:51:00,69.2,57.4,29.95,WNW,300,0.0,1.0,66,0.00,,FEW280,0.01,VWS V14.01,2013-08-11 01:51:00,
2013-08-10 21:56:00,69.1,57.3,29.95,WNW,300,0.0,1.0,66,0.00,,FEW280,0.01,VWS V14.01,2013-08-11 01:56:00,
2013-08-10 22:01:00,68.9,57.1,29.96,WNW,300,0.0,1.0,66,0.00,,CLR,0.01,VWS V14.01,2013-08-11 02:01:00,
2013-08-10 22:06:00,68.6,57.2,29.96,WNW,300,0.0,1.0,67,0.00,,CLR,0.01,VWS V14.01,2013-08-11 02:06:00,
2013-08-10 22:11:00,68.4,57.4,29.95,WNW,300,0.0,1.0,68,0.00,,CLR,0.01,VWS V14.01,2013-08-11 02:11:00,
2013-08-10 22:16:00,68.2,57.2,29.95,WNW,300,0.0,1.0,68,0.00,,CLR,0.01,VWS V14.01,2013-08-11 02:16:00,
2013-08-10 22:21:00,68.0,57.1,29.96,WNW,300,0.0,1.0,68,0.00,,CLR,0.01,VWS V14.01,2013-08-11 02:21:00,
2013-08-10 22:26:00,67.7,57.2,29.96,WNW,300,0.0,1.0,69,0.00,,CLR,0.01,VWS V14.01,2013-08-11 02:26:00,
2013-08-10 22:31:00,67.5,57.0,29.96,WNW,300,0.0,1.0,69,0.00,,CLR,0.01,VWS V14.01,2013-08-11 02:31:00,
2013-08-10 22:36:00,67.3,57.2,29.96,WNW,300,0.0,1.0,70,0.00,,CLR,0.01,VWS V14.01,2013-08-11 02:36:00,
2013-08-10 22:41:00,67.1,57.0,29.96,WNW,300,0.0,1.0,70,0.00,,CLR,0.01,VWS V14.01,2013-08-11 02:41:00,
2013-08-10 22:46:00,66.9,56.8,29.96,WNW,300,0.0,1.0,70,0.00,,CLR,0.01,VWS V14.01,2013-08-11 02:46:00,
2013-08-10 22:51:00,66.8,56.7,29.96,WNW,300,0.0,1.0,70,0.00,,CLR,0.01,VWS V14.01,2013-08-11 02:51:00,
2013-08-10 22:56:00,66.7,57.0,29.96,WNW,300,0.0,1.0,71,0.00,,CLR,0.01,VWS V14.01,2013-08-11 02:56:00,
2013-08-10 23:01:00,66.6,56.9,29.96,WNW,300,0.0,0.0,71,0.00,,CLR,0.01,VWS V14.01,2013-08-11 03:01:00,
2013-08-10 23:06:00,66.4,57.1,29.97,WNW,300,0.0,0.0,72,0.00,,CLR,0.01,VWS V14.01,2013-08-11 03:06:00,
2013-08-10 23:11:00,66.2,56.9,29.97,WNW,300,0.0,0.0,72,0.00,,CLR,0.01,VWS V14.01,2013-08-11 03:11:00,
2013-08-10 23:16:00,66.1,56.8,29.97,WNW,300,0.0,0.0,72,0.00,,CLR,0.01,VWS V14.01,2013-08-11 03:16:00,
2013-08-10 23:21:00,65.9,56.6,29.97,WNW,300,0.0,2.0,72,0.00,,CLR,0.01,VWS V14.01,2013-08-11 03:21:00,
2013-08-10 23:26:00,65.7,56.8,29.98,WNW,300,0.0,2.0,73,0.00,,CLR,0.01,VWS V14.01,2013-08-11 03:26:00,
2013-08-10 23:31:00,65.5,56.6,29.98,WNW,300,0.0,0.0,73,0.00,,CLR,0.01,VWS V14.01,2013-08-11 03:31:00,
2013-08-10 23:36:00,65.3,56.8,29.98,WNW,300,0.0,0.0,74,0.00,,CLR,0.01,VWS V14.01,2013-08-11 03:36:00,
2013-08-10 23:41:00,65.0,56.5,29.98,WNW,300,0.0,0.0,74,0.00,,CLR,0.01,VWS V14.01,2013-08-11 03:41:00,
2013-08-10 23:46:00,64.8,56.3,29.98,WNW,300,0.0,0.0,74,0.00,,CLR,0.01,VWS V14.01,2013-08-11 03:46:00,
2013-08-10 23:51:00,64.6,55.8,29.98,WNW,300,0.0,1.0,73,0.00,,CLR,0.01,VWS V14.01,2013-08-11 03:51:00,
2013-08-10 23:57:00,64.4,55.6,29.98,WNW,300,0.0,1.0,73,0.00,,CLR,0.01,VWS V14.01,2013-08-11 03:57:00,